Regional Weather Roundup
Issued by NWS

Home | Current Version | Previous Version | Graphics & Text | Print | Product List | Glossary On
Versions: 1 2 3 4 5 6 7 8 9 10 11 12 13 14 15 16 17 18 19 20 21 22 23 24 25 26 27 28 29 30 31 32 33 34 35 36 37 38 39 40 41 42 43 44 45 46 47 48 49 50
610
ASUS45 KCYS 292010
RWRWY

WYOMING REGIONAL WEATHER ROUNDUP
NATIONAL WEATHER SERVICE CHEYENNE WY
200 PM MDT FRI JUL 29 2016

NOTE:  "FAIR" INDICATES FEW OR NO CLOUDS BELOW 12,000 FEET
WITH NO SIGNIFICANT WEATHER AND/OR OBSTRUCTIONS TO VISIBILITY.

WYZ001-292100-
YELLOWSTONE NATIONAL PARK

CITY           SKY/WX    TMP DP  RH WIND       PRES   REMARKS
LK YELLOWSTONE   N/A     74  43  32 VRB5      30.30F
W YELLOWSTONE  NOT AVBL

$$
WYZ002>013-054>058-071-098>099-292100-
NORTHERN WYOMING

CITY           SKY/WX    TMP DP  RH WIND       PRES   REMARKS
JACKSON        SUNNY     81  39  22 SW8       30.18F
CODY           FAIR      81  52  36 N15G21    30.10S
GREYBULL       FAIR      88  43  20 E6        30.01F
WORLAND        FAIR      89  46  22 NE8       30.02F
SHERIDAN       FAIR      87  46  24 N6        30.06F
BUFFALO        FAIR      80  44  27 E6        30.13F
GILLETTE       FAIR      83  46  27 NE9G18    30.08F
HULETT         MOCLDY    79  54  41 CALM      30.11F
NEWCASTLE      FAIR      79  46  31 CALM      30.11F

$$
WYZ014>020-022>026-101>103-292100-
CENTRAL WYOMING

CITY           SKY/WX    TMP DP  RH WIND       PRES   REMARKS
BIG PINEY      FAIR      83  38  20 VRB7      30.22F
PINEDALE       FAIR      81  34  18 NW5G17    30.24F
DUBOIS         FAIR      81  32  17 W14G22    30.20F
LANDER         FAIR      85  49  28 CALM      30.11F
RIVERTON       FAIR      84  46  26 VRB6      30.10F
CASPER         PTSUNNY   88  46  23 E7        30.10F
DOUGLAS        FAIR      87  44  22 W6        30.10F

$$
WYZ021-027>030-104>119-292100-
SOUTHERN WYOMING

CITY           SKY/WX    TMP DP  RH WIND       PRES   REMARKS
EVANSTON       FAIR      89  31  12 MISG      30.25F
KEMMERER         N/A     84  27  12 W22G33    30.25F
FORT BRIDGER   FAIR      90  30  11 W13G29    30.25F
ROCK SPRINGS   FAIR      88  25  10 W25       30.20F
DIXON          FAIR      87  31  13 W7        30.23F
RAWLINS        FAIR      83  31  15 VRB5      30.21F
SARATOGA       FAIR      82  32  16 N13G23    30.24F
LARAMIE        FAIR      81  31  16 MISG      30.24F
CHEYENNE       FAIR      76  55  48 S15       30.20F
TORRINGTON     FAIR      87  55  33 SE14      30.07F
PINE BLUFFS    FAIR      79  54  41 SE12G17   30.17F

$$




USA.gov is the U.S. government's official web portal to all federal, state and local government web resources and services.